Drummond Island, MI

9:42 PM EST on December 10, 2016 (GMT -0500)
Drummond Island

Weather History for KDRM - October, 2013

Change the Weather History Date:

Tuesday, October 15, 2013

  Actual Average (KCIU) Record (KCIU)
Temperature  
Mean Temperature 46 °F -  
Max Temperature 58 °F 52 °F 64 °F (2016)
Min Temperature 34 °F 34 °F 18 °F (1978)
Degree Days  
Heating Degree Days 19    
Moisture  
Dew Point 45 °F    
Average Humidity 90    
Maximum Humidity 100    
Minimum Humidity 72    
Precipitation  
Precipitation 0.00 in - - ()
Sea Level Pressure  
Sea Level Pressure 30.05 in    
Wind  
Wind Speed 3 mph (ESE)    
Max Wind Speed 14 mph    
Max Gust Speed 18 mph    
Visibility 9 miles    
Events Rain    
Averages and records for this station are not official NWS values.
T = Trace of Precipitation, MM = Missing Value Source: NWS Daily Summary

Daily Weather History Graph

Daily Weather History Graph

Search for Another Location

Airport or City:

Trip Planner

Search our weather history database for the weather conditions in past years. The results will help you decide how hot, cold, wet, or windy it might be!

Date:

Astronomy

Oct. 15, 2013 Rise Set
Actual Time 7:52 AM EDT 6:48 PM EDT
Civil Twilight 7:22 AM EDT 7:18 PM EDT
Nautical Twilight 6:47 AM EDT 7:53 PM EDT
Astronomical Twilight 6:12 AM EDT 8:27 PM EDT
Moon 5:01 PM EDT (10/15) 4:03 AM EDT (10/15)
Length of Visible Light 11h 56m
Length of Day
10h 56m
Waxing Gibbous, 87% of the Moon is Illuminated
Oct 15
Waxing Gibbous
Oct 18
Full
Oct 26
Last Quarter
Nov 3
New
Nov 10
First Quarter

Hourly Weather History & Observations

Time (EDT) Temp. Windchill Dew Point Humidity Pressure Visibility Wind Dir Wind Speed Gust Speed Precip Events Conditions
12:15 AM 37.0 °F - 36.7 °F 99% 30.30 in 10.0 mi Calm Calm - N/A   Clear
12:36 AM 37.2 °F - 36.9 °F 99% 30.29 in 10.0 mi Calm Calm - N/A   Clear
12:55 AM 37.0 °F - 36.7 °F 99% 30.29 in 10.0 mi Calm Calm - N/A   Clear
1:15 AM 36.5 °F - 36.0 °F 98% 30.28 in 10.0 mi Calm Calm - N/A   Clear
1:36 AM 36.5 °F - 36.1 °F 99% 30.27 in 10.0 mi Calm Calm - N/A   Clear
1:55 AM 36.5 °F - 36.3 °F 99% 30.27 in 10.0 mi Calm Calm - N/A   Clear
2:15 AM 35.8 °F - 35.6 °F 99% 30.27 in 10.0 mi Calm Calm - N/A   Clear
2:35 AM 35.1 °F - 34.7 °F 99% 30.25 in 10.0 mi Calm Calm - N/A   Clear
2:55 AM 35.6 °F - 35.1 °F 98% 30.25 in 10.0 mi Calm Calm - N/A   Clear
3:16 AM 35.1 °F - 34.9 °F 99% 30.25 in 10.0 mi Calm Calm - N/A   Clear
3:35 AM 35.1 °F - 34.9 °F 99% 30.24 in 10.0 mi Calm Calm - N/A   Clear
3:55 AM 34.7 °F - 34.5 °F 99% 30.24 in 10.0 mi Calm Calm - N/A   Clear
4:16 AM 34.9 °F - 34.7 °F 99% 30.23 in 10.0 mi Calm Calm - N/A   Clear
4:35 AM 34.5 °F - 34.3 °F 99% 30.23 in 10.0 mi Calm Calm - N/A   Clear
4:55 AM 36.0 °F - 36.0 °F 100% 30.23 in 10.0 mi Calm Calm - N/A   Clear
5:16 AM 35.4 °F - 35.2 °F 99% 30.22 in 10.0 mi Calm Calm - N/A   Scattered Clouds
5:35 AM 36.0 °F - 35.8 °F 99% 30.21 in 10.0 mi Calm Calm - N/A   Scattered Clouds
5:56 AM 39.9 °F - 39.6 °F 99% 30.20 in 10.0 mi Calm Calm - N/A   Clear
6:16 AM 38.7 °F - 37.9 °F 97% 30.20 in 10.0 mi Calm Calm - N/A   Clear
6:35 AM 37.8 °F - 37.0 °F 97% 30.20 in 10.0 mi Calm Calm - N/A   Clear
6:56 AM 38.3 °F - 37.6 °F 97% 30.19 in 10.0 mi Calm Calm - N/A   Clear
7:15 AM 37.8 °F - 37.4 °F 99% 30.19 in 10.0 mi Calm Calm - N/A   Scattered Clouds
7:35 AM 38.5 °F - 38.3 °F 99% 30.18 in 10.0 mi Calm Calm - N/A   Mostly Cloudy
7:55 AM 41.2 °F - 41.0 °F 99% 30.18 in 10.0 mi Calm Calm - N/A   Mostly Cloudy
8:15 AM 41.5 °F - 40.8 °F 97% 30.16 in 10.0 mi Calm Calm - N/A   Mostly Cloudy
8:36 AM 44.1 °F 42.5 °F 43.2 °F 97% 30.15 in 10.0 mi East 3.5 mph - N/A   Scattered Clouds
8:55 AM 45.9 °F 44.6 °F 43.7 °F 92% 30.14 in 10.0 mi East 3.5 mph - N/A   Clear
9:15 AM 46.8 °F - 44.2 °F 91% 30.14 in 10.0 mi Calm Calm - N/A   Clear
9:36 AM 48.9 °F - 46.8 °F 92% 30.14 in 10.0 mi Calm Calm - N/A   Clear
9:55 AM 51.1 °F - 48.4 °F 90% 30.14 in 10.0 mi ESE 3.5 mph - N/A   Clear
10:16 AM 52.2 °F - 48.9 °F 89% 30.13 in 10.0 mi ESE 4.6 mph - N/A   Scattered Clouds
10:35 AM 53.1 °F - 49.3 °F 87% 30.12 in 10.0 mi ESE 5.8 mph - N/A   Clear
10:55 AM 54.3 °F - 50.0 °F 85% 30.12 in 10.0 mi ESE 3.5 mph - N/A   Scattered Clouds
11:16 AM 54.9 °F - 49.8 °F 83% 30.10 in 10.0 mi ESE 3.5 mph - N/A   Scattered Clouds
11:35 AM 55.4 °F - 50.4 °F 83% 30.08 in 10.0 mi ESE 3.5 mph - N/A   Scattered Clouds
11:55 AM 56.3 °F - 49.3 °F 77% 30.08 in 10.0 mi SE 5.8 mph - N/A   Overcast
12:16 PM 56.7 °F - 50.0 °F 78% 30.07 in 10.0 mi SSE 6.9 mph - N/A   Mostly Cloudy
12:35 PM 56.8 °F - 50.0 °F 78% 30.06 in 10.0 mi ESE 9.2 mph - N/A   Mostly Cloudy
12:55 PM 57.4 °F - 50.2 °F 77% 30.05 in 10.0 mi SE 6.9 mph - N/A   Scattered Clouds
1:16 PM 58.3 °F - 50.2 °F 74% 30.03 in 10.0 mi ESE 11.5 mph - N/A   Clear
1:35 PM 58.8 °F - 49.8 °F 72% 30.00 in 10.0 mi ESE 11.5 mph 17.3 mph N/A   Scattered Clouds
1:55 PM 58.1 °F - 49.5 °F 73% 29.99 in 10.0 mi SE 10.4 mph 16.1 mph N/A   Mostly Cloudy
2:15 PM 57.6 °F - 51.3 °F 79% 29.97 in 10.0 mi ESE 13.8 mph - N/A   Overcast
2:35 PM 58.3 °F - 51.1 °F 77% 29.97 in 10.0 mi SSE 8.1 mph 17.3 mph N/A   Overcast
2:56 PM 58.5 °F - 49.6 °F 72% 29.97 in 10.0 mi SSE 11.5 mph 18.4 mph N/A   Overcast
3:15 PM 57.7 °F - 49.1 °F 73% 29.96 in 10.0 mi SSE 10.4 mph 17.3 mph N/A   Scattered Clouds
3:35 PM 57.2 °F - 48.2 °F 72% 29.95 in 10.0 mi SSE 9.2 mph 16.1 mph N/A   Scattered Clouds
3:56 PM 57.2 °F - 48.4 °F 72% 29.95 in 10.0 mi SSE 8.1 mph 17.3 mph N/A   Overcast
4:15 PM 56.8 °F - 49.3 °F 76% 29.95 in 10.0 mi SE 13.8 mph 17.3 mph N/A   Overcast
4:36 PM 56.7 °F - 49.3 °F 76% 29.94 in 10.0 mi SE 11.5 mph 17.3 mph N/A   Overcast
4:55 PM 56.5 °F - 49.3 °F 77% 29.93 in 10.0 mi SE 8.1 mph - N/A   Overcast
5:15 PM 56.3 °F - 49.6 °F 78% 29.93 in 10.0 mi SE 9.2 mph - N/A   Overcast
5:36 PM 56.1 °F - 49.3 °F 78% 29.91 in 10.0 mi SE 9.2 mph - N/A   Overcast
5:55 PM 55.8 °F - 49.3 °F 79% 29.91 in 10.0 mi SE 9.2 mph 17.3 mph N/A Rain Light Rain
6:16 PM 55.4 °F - 49.5 °F 80% 29.91 in 10.0 mi ESE 6.9 mph - N/A Rain Light Rain
6:35 PM 54.5 °F - 50.5 °F 86% 29.89 in 7.0 mi ESE 8.1 mph - N/A Rain Rain
6:55 PM 53.6 °F - 51.4 °F 92% 29.87 in 5.0 mi ESE 5.8 mph - N/A Rain Light Rain
7:16 PM 53.2 °F - 51.8 °F 95% 29.87 in 7.0 mi ESE 5.8 mph - N/A Rain Rain
7:35 PM 53.2 °F - 52.0 °F 95% 29.85 in 7.0 mi East 4.6 mph - N/A Rain Rain
7:55 PM 53.2 °F - 52.0 °F 95% 29.86 in 7.0 mi East 6.9 mph - N/A Rain Rain
8:16 PM 53.2 °F - 52.0 °F 95% 29.84 in 7.0 mi ENE 5.8 mph - N/A Rain Light Rain
8:35 PM 53.4 °F - 52.0 °F 95% 29.84 in 7.0 mi East 3.5 mph - N/A Rain Rain
8:55 PM 53.2 °F - 52.2 °F 96% 29.83 in 7.0 mi East 3.5 mph - N/A Rain Rain
9:15 PM 53.6 °F - 52.7 °F 97% 29.83 in 5.0 mi East 5.8 mph - N/A Rain Rain
9:35 PM 53.6 °F - 52.7 °F 97% 29.81 in 7.0 mi East 6.9 mph - N/A Rain Light Rain
9:55 PM 53.8 °F - 53.1 °F 97% 29.80 in 7.0 mi ESE 4.6 mph - N/A   Heavy Drizzle
10:15 PM 53.8 °F - 53.1 °F 97% 29.79 in 4.0 mi East 8.1 mph - N/A Rain Rain
10:35 PM 54.0 °F - 53.2 °F 97% 29.78 in 7.0 mi East 8.1 mph - N/A   Drizzle
10:55 PM 54.0 °F - 53.2 °F 97% 29.77 in 10.0 mi ESE 8.1 mph - N/A Rain Light Rain
11:16 PM 54.0 °F - 53.2 °F 97% 29.76 in 10.0 mi ESE 5.8 mph - N/A   Overcast
11:35 PM 54.1 °F - 53.6 °F 98% 29.75 in 10.0 mi ESE 6.9 mph - N/A   Overcast
11:55 PM 54.5 °F - 53.6 °F 97% 29.74 in 10.0 mi ESE 4.6 mph - N/A   Overcast